www.pogodaiklimat.ru

Погода и климат >> Архив погоды >> Россия >> Хабаровский край >> Хабаровск


АРХИВ ПОГОДЫ в Хабаровске

Время (UTC), дата Ветер
(напр.,м/с)
 
Видим.   Явления Облачность Т
(С)
Тd
(С)
f
(%)
Тe
(С)
Тes
(С)
Комфортность P
(гПа)
Po
(гПа)
Тmin
(С)
Tmax
(С)
R
(мм)
R24
(мм)
S
(см)
00 16.04 Ю 4 10 км 4/0
[Ci fib]
+14.2 -6.7 23 +13 +18 тепло 1003.3 995.3
03 16.04 Ю 5 10 км 4/0
[Ci fib]
+19.7 -8.0 15 +19 +26 тепло 1000.3 992.4
06 16.04 ЮЗ 8-11
{11}
8000 м 6/0
[Ci fib]
+22.2 -10.4 10 +20 +21 тепло 997.5 989.8
09 16.04 Ю 4
{12}
10 км 9/0
[Ac trans Ci fib]
+19.4 -9.9 13 +19 +19 тепло 996.4 988.5 +22.5
12 16.04 Ю 5
{12}
10 км 9/0
[Cs]
+17.4 -4.7 22 +17 +17 тепло 996.2 988.4
15 16.04 З 8
{14}
10 км 6/0
[Ac trans]
+14.4 -0.5 36 +12 +12 тепло 997.9 989.9
18 16.04 З 7
{14}
10 км 4/0
[Ac trans]
+9.5 -7.4 30 +6 +6 тепло 1001.3 993.2
21 16.04 З 6
{10}
10 км 5/0
[Ac trans]
+6.5 -10.0 30 +3 +3 по сезону 1003.3 995.1 +6.4
00 17.04 ЮЗ 5
{10}
10 км 9/3 1000 м
[Sc Ac trans]
+9.0 -9.8 25 +6 +8 тепло 1005.1 996.6
03 17.04 ЮЗ 4 10 км 9/0
[Ac trans]
+12.9 -14.7 13 +12 +16 тепло 1004.1 995.7
06 17.04 СЗ 1 10 км 9/0
[Ac trans]
+15.9 -13.9 12 +17 +21 тепло 1001.0 992.7
09 17.04 СВ 3 10 км 9/0
[Ac trans Ci fib]
+12.9 -11.3 17 +12 +12 тепло 999.9 991.6 +16.4
12 17.04 СВ 3 10 км 6/0
[Ac trans Ci fib]
+7.6 -8.8 30 +6 +6 тепло 998.7 990.3
15 17.04 С 3 10 км 4/0
[Ac trans]
+4.7 -8.1 39 +2 +2 по сезону 997.2 988.6
18 17.04 СВ 5 10 км 8/0
[Ac trans Ci fib]
+3.0 -7.6 46 -2 -2 по сезону 995.1 986.5
21 17.04 СВ 4 10 км 8/0
[Ac trans Ci fib]
+2.0 -2.8 70 -3 -2 прохладно 994.6 986.0 +1.5
00 18.04 СВ 2 10 км слаб. ливневой дождь 9/3 1000 м
[Cb cap Ac trans]
+5.5 -0.5 65 +3 +6 по сезону 994.5 985.8
03 18.04 З 8-12
{12}
10 км 9/4 1000 м
[Cb cap Ac trans]
+10.1 +1.7 56 +6 +7 по сезону 995.7 987.4
06 18.04 ЮЗ 10
{12}
10 км {ливн. осадки} 9/5 1080 м
[Cb cap Ac trans]
+7.4 -0.9 56 +2 +2 холодно 997.9 989.7
09 18.04 ЮЗ 12-15
{15}
10 км 9/4 1000 м
[Cb cap Ac trans]
+3.7 -3.7 58 -3 -3 очень
холодно
1000.2 991.6 +11.0 0.0
12 18.04 ЮЗ 8-11
{15}
10 км 10/5 840 м
[Cb cap Ac As]
+1.0 -5.3 63 -6 -6 очень
холодно
1002.5 993.8
15 18.04 ЮЗ 5 1600 м ливневой снег 10// 420 м
[Cb cap]
-0.2 -2.6 84 -6 -6 холодно 1001.4 992.9
18 18.04 ЮЗ 9
{12}
1900 м ливневой снег 10/10 240 м
[Cb cap]
-1.2 -1.4 99 -10 -10 очень
холодно
1001.4 992.6
21 18.04 ЮЗ 9-12
{15}
900 м ливневой снег 10/10 240 м
[Cb cap]
-1.7 -1.9 99 -10 -10 очень
холодно
1002.1 993.3 -1.7 0.8
00 19.04 З 5
{15}
10 км слаб. ливневой снег 10/10 210 м
[Cb cap]
-0.6 -0.9 98 -7 -7 очень
холодно
1004.1 995.4
03 19.04 З 6
{11}
10 км слаб. ливневой снег 10/10 360 м
[Cb cap]
+0.9 +0.2 95 -6 -6 очень
холодно
1006.5 997.8
06 19.04 С 2
{11}
10 км слаб. ливневой снег 9/6 450 м
[Cb cap Ac trans]
+1.7 -0.1 88 -2 0 очень
холодно
1007.8 999.3
09 19.04 СВ 2 7000 м слаб. ливневой снег 10/5 420 м
[Cb cap Ac As]
+0.6 +0.2 97 -3 -3 очень
холодно
1009.9 1001.2 +3.8 2
12 19.04 штиль 0 9000 м слаб. ливневой снег 9/8 960 м
[Cb cap Ac trans]
0.0 0.0 100 -1 -1 прохладно 1011.2 1002.6
15 19.04 СЗ 2 10 км дымка 6/4 630 м
[Cb cap Ac trans]
-1.9 -1.9 100 -6 -6 холодно 1011.3 1002.4
18 19.04 З 2 100 м туман ?/? -3.1 -3.1 100 -7 -7 холодно 1012.7 1003.8
21 19.04 штиль 0 8000 м в посл. час туман 3/0
[Ac trans]
-3.5 -3.5 100 -5 -4 холодно 1012.7 1004.0 -5.0 2
00 20.04 ЮВ 2 10 км {туман} 3/0
[Ac trans]
+2.4 -1.7 74 -1 +7 прохладно 1013.1 1004.4
03 20.04 Ю 3 10 км 4/4 1380 м
[Sc]
+6.7 -3.3 49 +4 +12 по сезону 1011.6 1003.3
06 20.04 ЮВ 3 10 км 8/3 1000 м
[Sc Ci fib]
+8.5 -4.0 41 +7 +11 по сезону 1009.2 1000.7
09 20.04 В 5 10 км 8/0
[Ac trans Ci fib]
+7.7 -2.2 49 +4 +5 по сезону 1007.0 998.7 +9.4
12 20.04 В 3 10 км 8/0
[Ac trans Ci fib]
+4.1 -1.6 66 +1 +1 по сезону 1008.2 999.6
15 20.04 штиль 0 10 км 9/0
[Ac trans]
+0.7 -1.9 83 -0 -0 по сезону 1006.4 997.9
18 20.04 С 4 10 км 9/0
[Ac trans]
+1.7 -1.7 78 -3 -3 по сезону 1005.3 996.6
21 20.04 В 2 10 км 9/0
[Ac trans Ci fib]
+1.3 -1.3 83 -2 -2 прохладно 1005.2 996.5 +0.4
00 21.04 З 5 10 км 4/0
[Ac trans]
+7.2 -1.6 54 +4 +7 по сезону 1005.7 997.2
03 21.04 З 9
{13}
10 км 5/4 1000 м
[Sc Ac trans]
+11.5 -5.7 29 +8 +9 по сезону 1006.6 998.2
06 21.04 З 10-15
{14}
10 км 5/0
[Ac trans]
+11.9 -13.0 16 +9 +9 по сезону 1006.9 998.5
09 21.04 З 7
{15}
10 км 4/0
[Ac trans]
+10.7 -14.9 15 +8 +8 по сезону 1008.4 999.9 +13.0
12 21.04 З 5
{15}
10 км ясно +5.9 -11.0 28 +3 +3 по сезону 1010.6 1002.0
15 21.04 З 3 10 км ясно +4.0 -13.4 27 +1 +1 по сезону 1012.4 1003.7
18 21.04 ЮЗ 3 10 км ясно -1.8 -8.9 58 -6 -6 холодно 1013.5 1004.6
21 21.04 З 5 10 км ясно +2.0 -10.3 40 -3 -2 прохладно 1014.5 1005.8 -2.8
00 22.04 З 5
{11}
10 км ясно +8.9 -9.6 26 +6 +11 по сезону 1014.7 1006.4
03 22.04 З 8-14
{14}
10 км ясно +12.4 -15.4 13 +10 +13 тепло 1014.5 1006.0
06 22.04 З 6
{14}
10 км 1/0
[]
+13.8 -16.3 11 +12 +16 тепло 1013.1 1004.9
09 22.04 ЮЗ 5
{11}
10 км 3/0
[Ci fib]
+13.2 -14.4 13 +12 +12 тепло 1012.6 1004.2 +14.9
12 22.04 Ю 2 10 км 3/0
[Ci fib]
+7.0 -9.8 29 +6 +6 по сезону 1013.5 1004.9
15 22.04 Ю 2 10 км 5/0
[Ci fib]
+4.9 -8.8 36 +3 +3 по сезону 1012.4 1003.6
18 22.04 В 2 10 км 9/0
[Ac trans Ci fib]
+2.3 -6.6 52 -0 -0 по сезону 1011.0 1002.2
21 22.04 ЮВ 2 10 км 9/0
[Ac trans]
+5.7 -8.3 36 +4 +4 по сезону 1008.8 1000.2 +1.6

 

Местоположение метеостанции Хабаровск (Хабаровский край, Россия): широта 48.52 долгота 135.10 высота над уровнем моря 76 м.

В архиве по умолчанию представлена погода в Хабаровске за последнюю неделю. Архивные данные за месяц целиком и за предыдущие месяцы, начиная с января 2011 года, Вы можете получить, выбрав интересующий диапазон дат из раскрывающегося списка и нажав кнопку "Ввод!".


*Определитесь, кто Вы:
робот инопланетянин человек

Внимание! Время в таблицах - всемирное. Для получения местного времени необходимо прибавить поправку, которая равна 10 ч.

Смотрите также архив погоды в соседних городах и на ближайших метеорологических станциях:

Погода в Хабаровске Агромет (Хабаровский край, Россия) (1 км)
Погода в Хабаровске АМС (Хабаровский край, Россия) (6 км)
Погода на Хабаровск Мосту (Хабаровский край, Россия) (6 км)
Погода в Хабаровске Аэр. Большой (Хабаровский край, Россия) (8 км)
Погода в Хабаровске 21 км (Хабаровский край, Россия) (19 км)
Погода в Князе-Волконском (Хабаровский край, Россия) (28 км)
Погода в Бычихе (Хабаровский край, Россия) (32 км)
Погода в Елабуге (Хабаровский край, Россия) (61 км)
Погода в Оборе (Хабаровский край, Россия) (62 км)
Погода в Георгиевке (Хабаровский край, Россия) (64 км)

Пояснения к столбцам:

Ветер - указаны скорость ветра в м/с - средняя за 10 мин, порывы в срок и между сроками (в фигурных скобках) и направление, откуда дует ветер: С - северный, СВ - северо-восточный, В - восточный, ЮВ - юго-восточный, Ю - южный, ЮЗ - юго-западный, З - западный, СЗ - северо-западный.
Видимость - горизонтальная дальность видимости в метрах или километрах. При видимости от 1 до 10 км при отсутствии осадков обычно наблюдается дымка, при ухудшении видимости до 1 км и менее - туман. В сухую погоду видимость может ухудшаться дымом, пылью или мглою.
Явления - указаны атмосферные явления, наблюдавшиеся в срок или в последний час перед сроком; фигурными скобками обозначены явления, наблюдавшиеся между сроками (за 1-3 часа до срока); квадратными скобками обозначены град или гололедные отложения с указанием их диаметра в мм.
Облачность - указаны через наклонную черту общая и нижняя облачность в баллах и высота нижней границы облаков в метрах; квадратными скобками обозначены формы облаков: Ci - перистые, Cs - перисто-слоистые, Cc - перисто-кучевые, Ac - высококучевые, As - высокослоистые, Sc - слоисто-кучевые, Ns - слоисто-дождевые, Cu - кучевые, Cb - кучево-дождевые. Подробнее классификацию облаков см. в Атласе облаков (PDF).
T - Температура воздуха - температура, измеренная на высоте 2 м над землей.
Td - Температура точки росы - температура, при понижении до которой содержащийся в воздухе водяной пар достигнет насыщения.
f - Относительная влажность воздуха - влажноcть воздуха, измеренная на высоте 2 м над землей.
Te - Эффективная температура - температура, которую ощущает одетый по сезону человек в тени. Характеристика душности погоды. При расчете учитывается влияние влажности воздуха и скорости ветра на теплоощущения человека.
Tes - Эффективная температура на солнце - температура, которую ощущает человек, с поправкой на солнечный нагрев. Характеристика знойности погоды. Зависит от высоты солнца над горизонтом, облачности и скорости ветра. Ночью, в пасмурную погоду, а также при ветре 12 м/с и более поправка равна нулю.
P - Атмосферное давление - приведенное к уровню моря атмосферное давление.
Po - Атмосферное давление - измеренное на уровне метеостанции атмосферное давление.
Tmin - Минимальная температура - минимум температуры воздуха на высоте 2 м над землей.
Tmax - Максимальная температура - максимум температуры воздуха на высоте 2 м над землей.
R - Количество осадков - Количество выпавших осадков за период времени, мм. При наведении курсора мыши на число - период времени, за который выпало указанное количество осадков.
R24 - Количество осадков - Количество выпавших осадков за 24 часа, мм.
S - Снежный покров - Высота снежного покрова, см. При наведении курсора мыши на число - состояние снежного покрова и степень покрытия местности в баллах.